Time,TemperatureF,DewpointF,PressureIn,WindDirection,WindDirectionDegrees,WindSpeedMPH,WindSpeedGustMPH,Humidity,HourlyPrecipIn,Conditions,Clouds,dailyrainin,SoftwareType,DateUTC
2013-03-30 00:00:00,38.2,27.1,29.99,SW,220,0.0,0.0,64,0.00,,,0.00,Wunderground v.1.15,2013-03-30 04:00:00,
2013-03-30 00:10:00,38.8,27.3,29.99,SW,220,0.0,0.0,63,0.00,,,0.00,Wunderground v.1.15,2013-03-30 04:10:00,
2013-03-30 00:20:00,38.8,27.3,29.99,SW,220,0.0,0.0,63,0.00,,,0.00,Wunderground v.1.15,2013-03-30 04:20:00,
2013-03-30 00:30:00,38.6,27.5,29.99,SW,220,0.0,0.0,64,0.00,,,0.00,Wunderground v.1.15,2013-03-30 04:30:00,
2013-03-30 00:40:00,38.3,27.2,29.99,SW,220,0.0,0.0,64,0.00,,,0.00,Wunderground v.1.15,2013-03-30 04:40:00,
2013-03-30 00:50:00,38.2,27.1,29.99,SW,219,0.0,0.0,64,0.00,,,0.00,Wunderground v.1.15,2013-03-30 04:50:00,
2013-03-30 01:00:00,38.2,27.1,29.99,SW,219,0.0,0.0,64,0.00,,,0.00,Wunderground v.1.15,2013-03-30 05:00:00,
2013-03-30 01:10:00,38.0,27.6,29.99,SW,219,0.0,0.0,66,0.00,,,0.00,Wunderground v.1.15,2013-03-30 05:10:00,
2013-03-30 01:20:00,37.6,27.3,29.99,SW,219,0.0,0.0,66,0.00,,,0.00,Wunderground v.1.15,2013-03-30 05:20:00,
2013-03-30 01:30:00,36.8,26.5,30.00,SW,219,0.0,0.0,66,0.00,,,0.00,Wunderground v.1.15,2013-03-30 05:30:00,
2013-03-30 01:40:00,36.6,27.7,30.00,SW,219,0.0,0.0,70,0.00,,,0.00,Wunderground v.1.15,2013-03-30 05:40:00,
2013-03-30 01:50:00,35.8,27.3,30.00,SW,219,0.0,1.0,71,0.00,,,0.00,Wunderground v.1.15,2013-03-30 05:50:00,
2013-03-30 02:00:00,35.3,27.2,30.00,SW,219,0.0,0.0,72,0.00,,,0.00,Wunderground v.1.15,2013-03-30 06:00:00,
2013-03-30 02:10:00,34.9,27.1,30.00,SW,219,0.0,0.0,73,0.00,,,0.00,Wunderground v.1.15,2013-03-30 06:10:00,
2013-03-30 02:20:00,34.4,27.0,30.00,SW,219,0.0,0.0,74,0.00,,,0.00,Wunderground v.1.15,2013-03-30 06:20:00,
2013-03-30 02:30:00,33.8,26.4,30.00,SW,219,0.0,0.0,74,0.00,,,0.00,Wunderground v.1.15,2013-03-30 06:30:00,
2013-03-30 02:40:00,33.5,26.1,30.00,SW,219,0.0,0.0,74,0.00,,,0.00,Wunderground v.1.15,2013-03-30 06:40:00,
2013-03-30 02:50:00,33.1,25.7,29.99,SW,219,0.0,0.0,74,0.00,,,0.00,Wunderground v.1.15,2013-03-30 06:50:00,
2013-03-30 03:00:00,33.1,25.7,30.00,SW,219,0.0,0.0,74,0.00,,,0.00,Wunderground v.1.15,2013-03-30 07:00:00,
2013-03-30 03:10:00,33.1,27.0,30.00,SW,219,0.0,0.0,78,0.00,,,0.00,Wunderground v.1.15,2013-03-30 07:10:00,
2013-03-30 03:20:00,32.9,26.8,30.00,SW,219,0.0,0.0,78,0.00,,,0.00,Wunderground v.1.15,2013-03-30 07:20:00,
2013-03-30 03:30:00,32.8,27.0,30.00,SW,219,0.0,0.0,79,0.00,,,0.00,Wunderground v.1.15,2013-03-30 07:30:00,
2013-03-30 03:40:00,33.1,27.3,30.00,SW,219,0.0,0.0,79,0.00,,,0.00,Wunderground v.1.15,2013-03-30 07:40:00,
2013-03-30 03:50:00,33.1,27.3,30.00,SW,219,0.0,0.0,79,0.00,,,0.00,Wunderground v.1.15,2013-03-30 07:50:00,
2013-03-30 04:00:00,33.1,27.3,30.00,SW,219,0.0,0.0,79,0.00,,,0.00,Wunderground v.1.15,2013-03-30 08:00:00,
2013-03-30 04:10:00,32.9,27.1,30.00,SW,219,0.0,0.0,79,0.00,,,0.00,Wunderground v.1.15,2013-03-30 08:10:00,
2013-03-30 04:20:00,32.8,27.0,30.00,SW,219,0.0,0.0,79,0.00,,,0.00,Wunderground v.1.15,2013-03-30 08:20:00,
2013-03-30 04:30:00,32.4,26.6,30.00,SW,219,0.0,0.0,79,0.00,,,0.00,Wunderground v.1.15,2013-03-30 08:30:00,
2013-03-30 04:40:00,32.4,26.9,30.00,SW,219,0.0,0.0,80,0.00,,,0.00,Wunderground v.1.15,2013-03-30 08:40:00,
2013-03-30 04:50:00,31.9,26.4,30.00,SW,219,0.0,0.0,80,0.00,,,0.00,Wunderground v.1.15,2013-03-30 08:50:00,
2013-03-30 05:00:00,31.8,26.3,30.00,SW,219,0.0,0.0,80,0.00,,,0.00,Wunderground v.1.15,2013-03-30 09:00:00,
2013-03-30 05:10:00,31.8,26.3,30.00,SW,219,0.0,0.0,80,0.00,,,0.00,Wunderground v.1.15,2013-03-30 09:10:00,
2013-03-30 05:20:00,31.6,26.7,30.00,SW,219,0.0,0.0,82,0.00,,,0.00,Wunderground v.1.15,2013-03-30 09:20:00,
2013-03-30 05:30:00,31.3,26.4,30.00,SW,219,0.0,0.0,82,0.00,,,0.00,Wunderground v.1.15,2013-03-30 09:30:00,
2013-03-30 05:40:00,31.3,26.4,30.00,SW,219,0.0,0.0,82,0.00,,,0.00,Wunderground v.1.15,2013-03-30 09:40:00,
2013-03-30 05:50:00,31.3,26.4,30.01,SW,219,0.0,0.0,82,0.00,,,0.00,Wunderground v.1.15,2013-03-30 09:50:00,
2013-03-30 06:00:00,31.0,26.4,30.01,SW,219,0.0,0.0,83,0.00,,,0.00,Wunderground v.1.15,2013-03-30 10:00:00,
2013-03-30 06:10:00,30.9,26.3,30.01,SW,219,0.0,0.0,83,0.00,,,0.00,Wunderground v.1.15,2013-03-30 10:10:00,
2013-03-30 06:20:00,30.9,26.3,30.01,SW,219,0.0,0.0,83,0.00,,,0.00,Wunderground v.1.15,2013-03-30 10:20:00,
2013-03-30 06:30:00,30.4,25.9,30.02,SW,219,0.0,0.0,83,0.00,,,0.00,Wunderground v.1.15,2013-03-30 10:30:00,
2013-03-30 06:40:00,30.3,25.8,30.02,SW,219,0.0,0.0,83,0.00,,,0.00,Wunderground v.1.15,2013-03-30 10:40:00,
2013-03-30 06:50:00,30.3,25.8,30.02,SW,219,0.0,0.0,83,0.00,,,0.00,Wunderground v.1.15,2013-03-30 10:50:00,
2013-03-30 07:00:00,30.3,25.8,30.02,SW,219,0.0,0.0,83,0.00,,,0.00,Wunderground v.1.15,2013-03-30 11:00:00,
2013-03-30 07:10:00,30.9,26.3,30.02,SW,219,0.0,0.0,83,0.00,,,0.00,Wunderground v.1.15,2013-03-30 11:10:00,
2013-03-30 07:20:00,30.9,26.3,30.03,SW,219,0.0,0.0,83,0.00,,,0.00,Wunderground v.1.15,2013-03-30 11:20:00,
2013-03-30 07:30:00,31.2,26.6,30.03,SW,219,0.0,0.0,83,0.00,,,0.00,Wunderground v.1.15,2013-03-30 11:30:00,
2013-03-30 07:40:00,31.5,26.9,30.03,SW,219,0.0,0.0,83,0.00,,,0.00,Wunderground v.1.15,2013-03-30 11:40:00,
2013-03-30 07:50:00,32.1,27.8,30.03,SW,219,0.0,0.0,84,0.00,,,0.00,Wunderground v.1.15,2013-03-30 11:50:00,
2013-03-30 08:00:00,32.5,28.2,30.03,SW,220,0.0,0.0,84,0.00,,,0.00,Wunderground v.1.15,2013-03-30 12:00:00,
2013-03-30 08:10:00,33.4,29.1,30.03,SW,220,0.0,0.0,84,0.00,,,0.00,Wunderground v.1.15,2013-03-30 12:10:00,
2013-03-30 08:20:00,35.0,30.7,30.04,SW,216,0.0,0.0,84,0.00,,,0.00,Wunderground v.1.15,2013-03-30 12:20:00,
2013-03-30 08:30:00,37.8,33.4,30.03,SW,220,0.0,0.0,84,0.00,,,0.00,Wunderground v.1.15,2013-03-30 12:30:00,
2013-03-30 08:40:00,39.1,34.7,30.03,SW,220,0.0,0.0,84,0.00,,,0.00,Wunderground v.1.15,2013-03-30 12:40:00,
2013-03-30 08:50:00,39.8,35.4,30.04,SW,215,0.0,0.0,84,0.00,,,0.00,Wunderground v.1.15,2013-03-30 12:50:00,
2013-03-30 09:00:00,40.2,35.8,30.03,ESE,119,1.0,1.0,84,0.00,,,0.00,Wunderground v.1.15,2013-03-30 13:00:00,
2013-03-30 09:10:00,40.6,36.1,30.03,ESE,119,1.0,1.0,84,0.00,,,0.00,Wunderground v.1.15,2013-03-30 13:10:00,
2013-03-30 09:20:00,41.1,36.6,30.03,ENE,68,0.0,0.0,84,0.00,,,0.00,Wunderground v.1.15,2013-03-30 13:20:00,
2013-03-30 09:30:00,41.8,37.3,30.03,ENE,71,1.0,1.0,84,0.00,,,0.00,Wunderground v.1.15,2013-03-30 13:30:00,
2013-03-30 09:40:00,42.8,38.3,30.03,SE,124,1.0,1.0,84,0.00,,,0.00,Wunderground v.1.15,2013-03-30 13:40:00,
2013-03-30 09:50:00,43.1,38.6,30.04,ENE,71,2.0,2.0,84,0.00,,,0.00,Wunderground v.1.15,2013-03-30 13:50:00,
2013-03-30 10:00:00,43.1,38.6,30.03,East,99,1.0,1.0,84,0.00,,,0.00,Wunderground v.1.15,2013-03-30 14:00:00,
2013-03-30 10:10:00,44.6,40.1,30.03,SE,126,1.0,1.0,84,0.00,,,0.00,Wunderground v.1.15,2013-03-30 14:10:00,
2013-03-30 10:20:00,46.0,41.4,30.03,SE,131,1.0,5.0,84,0.00,,,0.00,Wunderground v.1.15,2013-03-30 14:20:00,
2013-03-30 10:30:00,46.2,41.6,30.03,SE,127,1.0,1.0,84,0.00,,,0.00,Wunderground v.1.15,2013-03-30 14:30:00,
2013-03-30 10:40:00,48.2,43.6,30.03,East,93,1.0,1.0,84,0.00,,,0.00,Wunderground v.1.15,2013-03-30 14:40:00,
2013-03-30 10:50:00,48.8,44.2,30.03,SSW,198,1.0,1.0,84,0.00,,,0.00,Wunderground v.1.15,2013-03-30 14:50:00,
2013-03-30 11:00:00,49.2,25.3,30.02,SE,138,1.0,1.0,39,0.00,,,0.00,Wunderground v.1.15,2013-03-30 15:00:00,
2013-03-30 11:10:00,50.1,24.2,30.02,ENE,72,1.0,1.0,36,0.00,,,0.00,Wunderground v.1.15,2013-03-30 15:10:00,
2013-03-30 11:20:00,50.7,24.7,30.02,ESE,107,0.0,0.0,36,0.00,,,0.00,Wunderground v.1.15,2013-03-30 15:20:00,
2013-03-30 11:30:00,51.4,25.3,30.01,SW,226,2.0,2.0,36,0.00,,,0.00,Wunderground v.1.15,2013-03-30 15:30:00,
2013-03-30 11:40:00,51.6,25.5,30.01,NW,325,1.0,1.0,36,0.00,,,0.00,Wunderground v.1.15,2013-03-30 15:40:00,
2013-03-30 11:50:00,51.9,23.7,30.01,SSW,203,1.0,1.0,33,0.00,,,0.00,Wunderground v.1.15,2013-03-30 15:50:00,
2013-03-30 12:00:00,52.2,23.9,30.00,WNW,301,2.0,2.0,33,0.00,,,0.00,Wunderground v.1.15,2013-03-30 16:00:00,
2013-03-30 12:10:00,51.7,23.5,30.00,South,189,2.0,2.0,33,0.00,,,0.00,Wunderground v.1.15,2013-03-30 16:10:00,
2013-03-30 12:20:00,53.1,21.6,30.00,ENE,62,1.0,1.0,29,0.00,,,0.00,Wunderground v.1.15,2013-03-30 16:20:00,
2013-03-30 12:30:00,53.8,24.6,30.00,SE,124,1.0,1.0,32,0.00,,,0.00,Wunderground v.1.15,2013-03-30 16:30:00,
2013-03-30 12:40:00,53.8,24.6,30.00,East,92,1.0,5.0,32,0.00,,,0.00,Wunderground v.1.15,2013-03-30 16:40:00,
2013-03-30 12:50:00,53.8,23.1,29.99,SE,131,1.0,3.0,30,0.00,,,0.00,Wunderground v.1.15,2013-03-30 16:50:00,
2013-03-30 13:00:00,54.2,23.4,29.99,East,88,1.0,1.0,30,0.00,,,0.00,Wunderground v.1.15,2013-03-30 17:00:00,
2013-03-30 13:10:00,52.9,23.0,29.99,SW,220,3.0,3.0,31,0.00,,,0.00,Wunderground v.1.15,2013-03-30 17:10:00,
2013-03-30 13:20:00,53.5,23.6,29.98,NE,54,1.0,6.0,31,0.00,,,0.00,Wunderground v.1.15,2013-03-30 17:20:00,
2013-03-30 13:30:00,54.4,21.1,29.98,WSW,244,1.0,1.0,27,0.00,,,0.00,Wunderground v.1.15,2013-03-30 17:30:00,
2013-03-30 13:40:00,55.0,23.3,29.98,ESE,106,1.0,3.0,29,0.00,,,0.00,Wunderground v.1.15,2013-03-30 17:40:00,
2013-03-30 13:50:00,54.5,21.2,29.97,SSW,213,2.0,2.0,27,0.00,,,0.00,Wunderground v.1.15,2013-03-30 17:50:00,
2013-03-30 14:00:00,54.2,20.9,29.96,East,93,3.0,3.0,27,0.00,,,0.00,Wunderground v.1.15,2013-03-30 18:00:00,
2013-03-30 14:10:00,54.2,20.9,29.96,WSW,240,2.0,2.0,27,0.00,,,0.00,Wunderground v.1.15,2013-03-30 18:10:00,
2013-03-30 14:20:00,54.2,20.0,29.95,East,92,1.0,1.0,26,0.00,,,0.00,Wunderground v.1.15,2013-03-30 18:20:00,
2013-03-30 14:30:00,55.3,21.0,29.94,WNW,285,1.0,5.0,26,0.00,,,0.00,Wunderground v.1.15,2013-03-30 18:30:00,
2013-03-30 14:40:00,54.5,20.3,29.94,SW,223,2.0,2.0,26,0.00,,,0.00,Wunderground v.1.15,2013-03-30 18:40:00,
2013-03-30 14:50:00,54.5,21.2,29.94,ESE,114,0.0,0.0,27,0.00,,,0.00,Wunderground v.1.15,2013-03-30 18:50:00,
2013-03-30 15:00:00,53.9,20.6,29.94,ENE,64,1.0,3.0,27,0.00,,,0.00,Wunderground v.1.15,2013-03-30 19:00:00,
2013-03-30 15:10:00,54.7,21.3,29.94,SSE,155,2.0,2.0,27,0.00,,,0.00,Wunderground v.1.15,2013-03-30 19:10:00,
2013-03-30 15:20:00,54.7,21.3,29.93,North,10,0.0,0.0,27,0.00,,,0.00,Wunderground v.1.15,2013-03-30 19:20:00,
2013-03-30 15:30:00,54.7,21.3,29.93,West,265,1.0,5.0,27,0.00,,,0.00,Wunderground v.1.15,2013-03-30 19:30:00,
2013-03-30 15:40:00,55.3,18.1,29.93,WSW,239,1.0,1.0,23,0.00,,,0.00,Wunderground v.1.15,2013-03-30 19:40:00,
2013-03-30 15:50:00,54.5,17.4,29.93,North,0,1.0,1.0,23,0.00,,,0.00,Wunderground v.1.15,2013-03-30 19:50:00,
2013-03-30 16:00:00,55.3,18.1,29.92,SSW,192,1.0,3.0,23,0.00,,,0.00,Wunderground v.1.15,2013-03-30 20:00:00,
2013-03-30 16:10:00,54.5,17.4,29.92,SSE,150,1.0,1.0,23,0.00,,,0.00,Wunderground v.1.15,2013-03-30 20:10:00,
2013-03-30 16:20:00,55.4,19.2,29.92,SW,224,0.0,0.0,24,0.00,,,0.00,Wunderground v.1.15,2013-03-30 20:20:00,
2013-03-30 16:30:00,55.4,18.2,29.92,SW,215,2.0,2.0,23,0.00,,,0.00,Wunderground v.1.15,2013-03-30 20:30:00,
2013-03-30 16:40:00,56.0,18.7,29.92,NNE,23,0.0,7.0,23,0.00,,,0.00,Wunderground v.1.15,2013-03-30 20:40:00,
2013-03-30 16:50:00,55.4,18.2,29.92,SW,215,1.0,1.0,23,0.00,,,0.00,Wunderground v.1.15,2013-03-30 20:50:00,
2013-03-30 17:00:00,56.0,17.6,29.92,NW,318,1.0,1.0,22,0.00,,,0.00,Wunderground v.1.15,2013-03-30 21:00:00,
2013-03-30 17:10:00,56.2,17.8,29.92,WSW,241,1.0,1.0,22,0.00,,,0.00,Wunderground v.1.15,2013-03-30 21:10:00,
2013-03-30 17:20:00,56.6,18.1,29.92,WSW,257,2.0,5.0,22,0.00,,,0.00,Wunderground v.1.15,2013-03-30 21:20:00,
2013-03-30 17:30:00,57.2,18.6,29.91,SW,232,1.0,1.0,22,0.00,,,0.00,Wunderground v.1.15,2013-03-30 21:30:00,
2013-03-30 17:40:00,58.1,19.4,29.91,ESE,110,1.0,3.0,22,0.00,,,0.00,Wunderground v.1.15,2013-03-30 21:40:00,
2013-03-30 17:50:00,56.7,16.0,29.92,West,260,1.0,1.0,20,0.00,,,0.00,Wunderground v.1.15,2013-03-30 21:50:00,
2013-03-30 18:00:00,56.2,15.6,29.92,WSW,243,0.0,2.0,20,0.00,,,0.00,Wunderground v.1.15,2013-03-30 22:00:00,
2013-03-30 18:10:00,55.3,14.8,29.92,WSW,237,1.0,1.0,20,0.00,,,0.00,Wunderground v.1.15,2013-03-30 22:10:00,
2013-03-30 18:20:00,54.5,16.4,29.92,West,265,1.0,1.0,22,0.00,,,0.00,Wunderground v.1.15,2013-03-30 22:20:00,
2013-03-30 18:30:00,54.4,18.3,29.93,SSW,213,0.0,1.0,24,0.00,,,0.00,Wunderground v.1.15,2013-03-30 22:30:00,
2013-03-30 18:40:00,53.6,16.6,29.93,SW,217,0.0,0.0,23,0.00,,,0.00,Wunderground v.1.15,2013-03-30 22:40:00,
2013-03-30 18:50:00,52.9,16.1,29.93,SW,234,0.0,0.0,23,0.00,,,0.00,Wunderground v.1.15,2013-03-30 22:50:00,
2013-03-30 19:00:00,52.9,18.9,29.94,SW,234,0.0,0.0,26,0.00,,,0.00,Wunderground v.1.15,2013-03-30 23:00:00,
2013-03-30 19:10:00,51.1,18.2,29.94,SW,234,0.0,0.0,27,0.00,,,0.00,Wunderground v.1.15,2013-03-30 23:10:00,
2013-03-30 19:20:00,51.1,19.1,29.94,SW,234,0.0,0.0,28,0.00,,,0.00,Wunderground v.1.15,2013-03-30 23:20:00,
2013-03-30 19:30:00,49.2,19.8,29.95,SW,234,0.0,0.0,31,0.00,,,0.00,Wunderground v.1.15,2013-03-30 23:30:00,
2013-03-30 19:40:00,48.8,19.5,29.95,SW,234,0.0,0.0,31,0.00,,,0.00,Wunderground v.1.15,2013-03-30 23:40:00,
2013-03-30 19:50:00,47.1,18.0,29.95,SW,234,0.0,0.0,31,0.00,,,0.00,Wunderground v.1.15,2013-03-30 23:50:00,
2013-03-30 20:00:00,45.7,16.7,29.95,SW,234,0.0,0.0,31,0.00,,,0.00,Wunderground v.1.15,2013-03-31 00:00:00,
2013-03-30 20:10:00,44.9,16.0,29.95,SW,234,0.0,0.0,31,0.00,,,0.00,Wunderground v.1.15,2013-03-31 00:10:00,
2013-03-30 20:20:00,44.2,15.4,29.96,SW,234,0.0,0.0,31,0.00,,,0.00,Wunderground v.1.15,2013-03-31 00:20:00,
2013-03-30 20:30:00,43.2,14.6,29.96,SW,234,0.0,0.0,31,0.00,,,0.00,Wunderground v.1.15,2013-03-31 00:30:00,
2013-03-30 20:40:00,42.3,13.8,29.96,SW,234,0.0,0.0,31,0.00,,,0.00,Wunderground v.1.15,2013-03-31 00:40:00,
2013-03-30 20:50:00,41.8,13.3,29.97,SW,234,0.0,0.0,31,0.00,,,0.00,Wunderground v.1.15,2013-03-31 00:50:00,
2013-03-30 21:00:00,41.6,13.2,29.97,SW,234,0.0,0.0,31,0.00,,,0.00,Wunderground v.1.15,2013-03-31 01:00:00,
2013-03-30 21:10:00,40.9,12.5,29.97,SW,234,0.0,0.0,31,0.00,,,0.00,Wunderground v.1.15,2013-03-31 01:10:00,
2013-03-30 21:20:00,40.6,12.3,29.97,SW,234,0.0,0.0,31,0.00,,,0.00,Wunderground v.1.15,2013-03-31 01:20:00,
2013-03-30 21:30:00,40.3,12.0,29.97,SW,234,0.0,0.0,31,0.00,,,0.00,Wunderground v.1.15,2013-03-31 01:30:00,
2013-03-30 21:40:00,39.9,11.7,29.97,SW,234,0.0,0.0,31,0.00,,,0.00,Wunderground v.1.15,2013-03-31 01:40:00,
2013-03-30 21:50:00,39.9,11.7,29.98,SW,234,0.0,0.0,31,0.00,,,0.00,Wunderground v.1.15,2013-03-31 01:50:00,
2013-03-30 22:00:00,39.6,11.4,29.98,SW,234,0.0,0.0,31,0.00,,,0.00,Wunderground v.1.15,2013-03-31 02:00:00,
2013-03-30 22:10:00,39.3,11.1,29.98,SW,234,0.0,0.0,31,0.00,,,0.00,Wunderground v.1.15,2013-03-31 02:10:00,
2013-03-30 22:20:00,39.1,11.0,29.98,SW,234,0.0,0.0,31,0.00,,,0.00,Wunderground v.1.15,2013-03-31 02:20:00,
2013-03-30 22:30:00,38.8,10.7,29.98,SW,234,0.0,0.0,31,0.00,,,0.00,Wunderground v.1.15,2013-03-31 02:30:00,
2013-03-30 22:40:00,38.6,10.5,29.98,SW,234,0.0,0.0,31,0.00,,,0.00,Wunderground v.1.15,2013-03-31 02:40:00,
2013-03-30 22:50:00,38.3,10.3,29.98,SW,234,0.0,0.0,31,0.00,,,0.00,Wunderground v.1.15,2013-03-31 02:50:00,
2013-03-30 23:00:00,38.3,10.3,29.99,SW,234,0.0,0.0,31,0.00,,,0.00,Wunderground v.1.15,2013-03-31 03:00:00,
2013-03-30 23:10:00,38.2,10.2,29.99,SW,234,0.0,0.0,31,0.00,,,0.00,Wunderground v.1.15,2013-03-31 03:10:00,
2013-03-30 23:20:00,38.0,10.0,29.99,SW,234,0.0,0.0,31,0.00,,,0.00,Wunderground v.1.15,2013-03-31 03:20:00,
2013-03-30 23:30:00,38.0,10.0,29.99,SW,234,0.0,0.0,31,0.00,,,0.00,Wunderground v.1.15,2013-03-31 03:30:00,
2013-03-30 23:40:00,38.0,10.0,29.99,SW,234,0.0,0.0,31,0.00,,,0.00,Wunderground v.1.15,2013-03-31 03:40:00,
2013-03-30 23:50:00,37.0,9.1,29.99,SW,234,0.0,0.0,31,0.00,,,0.00,Wunderground v.1.15,2013-03-31 03:50:00,